www.pogodaiklimat.ru

Погода и климат >> Архив погоды >> Россия >> Ростовская область >> Ростов-на-Дону


АРХИВ ПОГОДЫ в Ростове-на-Дону

Время (UTC), дата Ветер
(напр.,м/с)
 
Видим.   Явления Облачность Т
(С)
Тd
(С)
f
(%)
Тe
(С)
Тes
(С)
Комфортность P
(гПа)
Po
(гПа)
Тmin
(С)
Tmax
(С)
R
(мм)
R24
(мм)
S
(см)
12 11.06 н/о 3/0
[Ci fib]
+32.1 +10.0 26 1012.8 1003.5
15 11.06 н/о ясно +31.2 +8.7 25 1011.8 1002.5 +32.5
18 11.06 н/о ясно +27.2 +7.6 29 1011.8 1002.3
21 11.06 н/о ясно +26.0 +3.2 23 1011.6 1002.1
00 12.06 н/о 4/0
[Ac trans]
+23.5 +6.7 34 1011.8 1002.2
03 12.06 н/о 6/0
[Ac trans Ci fib]
+22.2 +8.8 42 1012.2 1002.6 +22.1
06 12.06 н/о в посл. час ливневой дождь 8/4 600 м
[Cb calv Ac trans]
+23.3 +10.0 43 1012.0 1002.4
09 12.06 н/о 6/0
[Ac trans]
+31.5 +10.9 28 1011.2 1001.9
12 12.06 н/о 8/0
[Ac trans Ci fib]
+32.9 +9.3 23 1010.2 1000.9
15 12.06 н/о 5/0
[Ac trans Ci fib]
+32.4 +7.5 21 1009.2 999.9 +33.8 0.0
18 12.06 н/о 8/5 600 м
[Cb calv Ac trans]
+28.5 +7.4 26 1009.8 1000.4
21 12.06 н/о ясно +23.2 +8.7 40 1010.1 1000.5
00 13.06 н/о ясно +21.5 +8.2 42 1010.2 1000.6
03 13.06 н/о 5/0
[Ac trans Ci fib]
+22.7 +10.8 47 1010.8 1001.2 +21.1
06 13.06 н/о 9/0
[Ci fib]
+27.4 +12.4 39 1011.8 1002.4
09 13.06 н/о 9/0
[Ci fib]
+31.9 +11.6 29 1012.4 1003.1
12 13.06 н/о 9/0
[Ci fib]
+32.0 +9.4 25 1012.0 1002.7
15 13.06 н/о 9/0
[Ac trans Ci fib]
+32.4 +9.1 24 1011.8 1002.5 +33.5
18 13.06 н/о 8/6 600 м
[Sc Ac trans]
+26.3 +10.8 38 1012.7 1003.2
21 13.06 н/о ясно +25.4 +11.5 42 1014.6 1005.1
00 14.06 н/о ясно +22.2 +11.8 52 1015.7 1006.1
03 14.06 н/о 4/0
[Ci fib]
+20.0 +10.1 53 1017.4 1007.7 +19.9
06 14.06 н/о ясно +22.4 +7.6 39 1018.8 1009.1 +19.7
09 14.06 н/о ясно +25.9 +7.6 31 1018.6 1009.0
12 14.06 н/о ясно +27.8 +5.6 24 1017.8 1008.3
15 14.06 н/о ясно +26.9 +3.1 22 1016.7 1007.2 +28.1
18 14.06 н/о ясно +22.8 +1.1 24 1017.0 1007.3
21 14.06 н/о ясно +20.6 -0.1 25 1016.4 1006.7
00 15.06 н/о ясно +17.9 +0.8 32 1016.1 1006.3
03 15.06 н/о ясно +18.0 +1.8 34 1015.5 1005.7 +16.7
06 15.06 н/о ясно +25.8 +3.0 23 1015.5 1006.0
09 15.06 н/о ясно +29.2 +1.4 17 1014.6 1005.2
12 15.06 н/о ясно +31.1 +0.2 14 1013.0 1003.6
15 15.06 н/о ясно +30.4 +2.4 17 1011.5 1002.1 +32.0
18 15.06 н/о 3/0
[Ac trans]
+21.3 +5.9 37 1012.2 1002.5
21 15.06 н/о ясно +21.4 +3.9 32 1011.2 1001.6
00 16.06 н/о ясно +20.5 +5.8 38 1010.8 1001.1
03 16.06 н/о ясно +18.8 +11.6 63 1010.5 1000.8 +18.4
06 16.06 н/о ясно +28.6 +13.0 38 1010.3 1000.9
09 16.06 н/о ясно +32.1 +8.9 24 1009.8 1000.5
12 16.06 н/о ясно +34.0 +8.1 20 1008.8 999.6
15 16.06 н/о ясно +32.2 +10.0 26 1007.6 998.3 +34.6
18 16.06 н/о ясно +25.0 +8.7 35 1007.9 998.4
21 16.06 н/о ясно +20.7 +14.1 66 1009.5 999.9
00 17.06 н/о 4/0
[Ac trans]
+18.0 +15.1 83 1010.7 1001.0
03 17.06 н/о ясно +17.8 +15.3 85 1011.8 1002.1 +17.1
06 17.06 н/о ясно +23.7 +13.7 53 1012.6 1003.0
09 17.06 н/о ясно +28.0 +12.5 38 1012.5 1003.1
12 17.06 н/о 4/4 600 м
[Cb calv]
+29.0 +12.5 36 1012.0 1002.6
15 17.06 н/о 3/3 600 м
[Cb calv]
+28.6 +10.9 33 1012.1 1002.7 +29.6
18 17.06 н/о ясно +23.2 +9.0 40 1012.9 1003.3
21 17.06 н/о ясно +21.0 +9.7 48 1013.7 1004.0
00 18.06 н/о ясно +18.5 +10.2 58 1013.5 1003.8
03 18.06 н/о ясно +18.5 +11.4 63 1014.2 1004.4 +17.6
06 18.06 н/о ясно +26.8 +12.2 40 1013.9 1004.4

 

Местоположение метеостанции Ростов-на-Дону (Ростовская область, Россия): широта 47.27 долгота 39.82 высота над уровнем моря 75 м.

В архиве по умолчанию представлена погода в Ростове-на-Дону за последнюю неделю. Архивные данные за месяц целиком и за предыдущие месяцы, начиная с января 2011 года, Вы можете получить, выбрав интересующий диапазон дат из раскрывающегося списка и нажав кнопку "Ввод!".


*Определитесь, кто Вы:
робот инопланетянин человек

Внимание! Время в таблицах - всемирное. Для получения местного времени необходимо прибавить поправку, которая равна 3 ч.

Смотрите также архив погоды в соседних городах и на ближайших метеорологических станциях:

Погода в Аэропорту Платов (Ростовская область, Россия) (26 км)
Погода в Шахтах (Ростовская область, Россия) (59 км)
Погода в Зерноград (Ростовская область, Россия) (60 км)
Погода в Таганроге (Ростовская область, Россия) (70 км)
Погода в Матвеевом Кургане (Ростовская область, Россия) (78 км)
Погода в Семикаракорске (Ростовская область, Россия) (81 км)
Погода в Маргаритово (Ростовская область, Россия) (81 км)
Погода в Кущевской (Краснодарский край, Россия) (84 км)
Погода в Константиновске (Ростовская область, Россия) (102 км)
Погода в Староминская (Краснодарский край, Россия) (102 км)

Пояснения к столбцам:

Ветер - указаны скорость ветра в м/с - средняя за 10 мин, порывы в срок и между сроками (в фигурных скобках) и направление, откуда дует ветер: С - северный, СВ - северо-восточный, В - восточный, ЮВ - юго-восточный, Ю - южный, ЮЗ - юго-западный, З - западный, СЗ - северо-западный.
Видимость - горизонтальная дальность видимости в метрах или километрах. При видимости от 1 до 10 км при отсутствии осадков обычно наблюдается дымка, при ухудшении видимости до 1 км и менее - туман. В сухую погоду видимость может ухудшаться дымом, пылью или мглою.
Явления - указаны атмосферные явления, наблюдавшиеся в срок или в последний час перед сроком; фигурными скобками обозначены явления, наблюдавшиеся между сроками (за 1-3 часа до срока); квадратными скобками обозначены град или гололедные отложения с указанием их диаметра в мм.
Облачность - указаны через наклонную черту общая и нижняя облачность в баллах и высота нижней границы облаков в метрах; квадратными скобками обозначены формы облаков: Ci - перистые, Cs - перисто-слоистые, Cc - перисто-кучевые, Ac - высококучевые, As - высокослоистые, Sc - слоисто-кучевые, Ns - слоисто-дождевые, Cu - кучевые, Cb - кучево-дождевые. Подробнее классификацию облаков см. в Атласе облаков (PDF).
T - Температура воздуха - температура, измеренная на высоте 2 м над землей.
Td - Температура точки росы - температура, при понижении до которой содержащийся в воздухе водяной пар достигнет насыщения.
f - Относительная влажность воздуха - влажноcть воздуха, измеренная на высоте 2 м над землей.
Te - Эффективная температура - температура, которую ощущает одетый по сезону человек в тени. Характеристика душности погоды. При расчете учитывается влияние влажности воздуха и скорости ветра на теплоощущения человека.
Tes - Эффективная температура на солнце - температура, которую ощущает человек, с поправкой на солнечный нагрев. Характеристика знойности погоды. Зависит от высоты солнца над горизонтом, облачности и скорости ветра. Ночью, в пасмурную погоду, а также при ветре 12 м/с и более поправка равна нулю.
P - Атмосферное давление - приведенное к уровню моря атмосферное давление.
Po - Атмосферное давление - измеренное на уровне метеостанции атмосферное давление.
Tmin - Минимальная температура - минимум температуры воздуха на высоте 2 м над землей.
Tmax - Максимальная температура - максимум температуры воздуха на высоте 2 м над землей.
R - Количество осадков - Количество выпавших осадков за период времени, мм. При наведении курсора мыши на число - период времени, за который выпало указанное количество осадков.
R24 - Количество осадков - Количество выпавших осадков за 24 часа, мм.
S - Снежный покров - Высота снежного покрова, см. При наведении курсора мыши на число - состояние снежного покрова и степень покрытия местности в баллах.